Wind_Speed
28 25 23 23 22 20 21 22 21 19 19 18 20 20 19 19 20 19 19 18 18 17 17 17 18 18 18 18 18 19 19 20 21 21 20 20 20 20 20 20 20 20 20 20
31 29 26 24 24 22 21 21 21 22 21 21 22 23 23 22 20 20 20 20 19 19 19 20 20 20 20 20 20 20 21 22 23 22 22 22 22 22 21 22 22 22 22 22
33 31 29 28 26 25 25 24 24 24 24 23 24 25 24 24 22 20 21 21 21 21 21 21 22 22 22 22 22 22 23 23 24 24 23 24 24 23 23 24 24 24 24 24
33 31 32 30 26 26 27 27 27 27 25 26 28 28 27 26 24 23 24 24 23 24 24 23 24 24 25 25 25 25 25 26 26 26 25 25 25 25 26 26 26 26 26 26
34 33 33 30 28 28 30 31 30 29 27 28 29 30 30 30 28 26 26 26 26 27 26 25 26 26 27 27 27 27 27 27 28 28 27 26 26 27 27 28 28 28 28 27
34 34 33 30 30 32 33 33 31 30 30 31 30 29 30 32 30 29 28 28 29 29 28 28 28 29 29 29 29 29 29 29 29 29 28 28 28 29 29 29 29 31 30 29
34 34 34 33 32 33 33 35 33 32 31 32 32 31 32 33 33 32 31 31 31 31 31 30 30 31 31 31 31 31 32 31 31 31 31 30 30 30 31 31 31 32 31 30
35 35 34 34 35 36 36 35 34 33 32 32 33 33 33 33 33 34 33 33 33 33 33 33 33 33 33 33 33 33 33 33 33 33 33 32 32 32 32 33 33 33 33 32
36 36 36 36 36 37 37 36 35 35 35 34 33 35 35 34 34 34 34 34 34 34 33 33 34 34 34 34 34 35 35 35 34 35 35 35 34 35 35 35 35 35 35 34
36 37 38 38 37 37 38 38 38 37 36 36 35 35 36 36 36 35 35 35 35 35 35 34 34 35 35 36 36 36 37 37 37 37 37 37 36 37 37 37 37 36 36 36
38 39 39 39 40 39 38 39 39 39 39 37 36 36 36 36 36 36 36 36 36 36 35 35 35 35 36 37 37 38 38 38 38 39 38 38 38 38 38 37 38 37 37 37
40 39 38 38 39 40 40 39 39 39 39 38 36 35 36 36 36 36 36 36 35 35 36 35 36 37 38 38 39 39 39 40 40 40 40 40 40 39 39 38 38 37 37 37
37 37 38 38 38 38 39 39 39 39 39 38 37 37 37 37 37 37 37 37 37 37 37 37 38 38 39 39 40 40 41 41 40 41 41 40 40 40 40 39 38 38 37 37
37 36 38 38 37 38 38 39 39 39 38 38 38 38 39 39 39 38 37 38 38 38 38 39 40 40 40 40 41 41 41 42 42 43 43 43 42 42 41 40 39 39 38 38
37 37 36 36 35 35 36 37 38 38 38 38 38 38 39 39 38 38 37 38 38 38 39 40 40 40 41 41 41 41 41 41 42 43 43 43 42 42 42 41 40 40 40 40
35 35 34 34 34 33 34 35 35 35 36 37 38 38 38 38 37 37 38 38 39 39 39 40 40 41 42 42 42 42 41 41 42 43 43 42 42 42 42 43 42 42 41 41
32 33 33 32 33 33 34 35 34 34 34 35 37 37 37 38 37 36 37 38 39 39 39 40 40 41 41 42 42 42 42 43 43 42 43 43 43 43 43 44 43 43 43 42
31 31 31 31 31 32 32 32 31 32 32 33 34 34 36 37 37 37 37 38 38 39 39 39 40 41 42 42 42 42 42 42 42 42 43 43 43 42 42 42 41 41 42 42
28 29 29 30 30 31 31 31 31 32 33 33 33 33 33 35 35 36 37 37 38 38 37 38 39 39 39 39 40 41 42 41 41 41 42 42 42 42 41 40 40 40 41 41
27 27 28 28 29 30 30 30 31 32 32 32 32 32 33 34 35 35 36 36 36 36 36 37 38 38 37 37 38 39 39 39 40 40 39 39 39 39 39 39 40 40 40 40
25 25 26 27 29 30 30 30 31 30 31 32 32 32 32 33 34 34 34 35 34 35 35 36 36 36 35 36 37 37 37 38 39 39 39 38 38 38 38 39 40 40 41 40
25 25 25 26 26 26 26 26 28 29 29 29 31 31 32 32 33 34 34 34 33 33 34 34 34 35 35 35 36 36 36 37 37 37 37 37 37 38 38 38 39 39 39 39
23 23 24 24 24 25 25 25 26 27 27 28 29 30 30 31 31 32 32 32 31 31 31 32 33 33 34 34 35 34 34 35 35 35 36 36 36 36 36 37 37 38 38 38
21 22 22 22 22 23 23 24 25 25 25 26 27 27 27 27 28 28 29 29 29 30 30 31 32 32 33 33 33 33 34 34 34 35 35 35 35 34 34 35 35 36 36 36
20 19 19 20 20 21 23 24 23 23 24 24 25 26 26 26 27 28 29 29 29 29 30 30 30 31 31 32 32 33 33 33 33 33 33 33 33 34 35 34 34 33 33 32
18 18 19 19 20 20 21 22 22 22 22 23 24 25 25 26 26 27 28 28 28 28 29 29 29 29 30 31 32 31 31 30 30 31 31 32 33 33 33 32 31 30 29 28
18 18 18 18 19 19 20 20 20 21 22 22 23 24 24 25 26 26 26 27 27 27 28 28 28 28 29 29 29 29 29 29 30 30 30 30 30 29 29 28 27 26 25 25
Wind_Direction
225 224 226 233 237 240 239 237 244 252 259 258 261 263 264 268 272 275 279 281 283 283 284 286 288 290 292 296 300 302 304 307 310 311 312 314 314 314 315 314 312 310 308 307
231 228 228 233 236 238 241 244 246 246 250 257 259 263 265 268 270 277 281 281 282 281 281 283 286 288 289 292 295 298 301 303 305 307 307 308 308 308 309 309 310 309 307 306
234 231 232 235 237 242 242 243 245 249 250 257 262 263 268 272 272 273 275 279 281 281 281 281 283 286 287 289 291 294 297 299 301 302 303 305 305 305 306 307 308 308 306 305
238 237 237 237 236 241 245 245 246 248 248 254 260 265 268 271 271 272 274 275 277 278 280 281 282 284 285 286 288 291 293 296 298 298 300 303 305 304 304 304 305 305 303 302
237 240 241 238 236 238 244 246 247 248 248 253 259 263 266 269 272 271 273 273 274 276 278 281 281 282 283 285 287 289 291 293 295 296 297 299 300 301 301 302 302 303 303 300
237 238 240 240 239 240 245 248 249 252 254 255 259 261 263 266 269 271 272 272 274 276 279 279 279 280 281 283 285 287 289 290 292 293 294 296 297 299 299 301 301 302 302 300
238 239 241 242 243 242 244 247 250 253 255 257 259 260 264 267 269 270 271 271 273 275 277 278 279 280 281 282 283 284 286 287 289 291 292 294 295 297 297 298 299 300 300 299
238 237 238 240 242 242 245 248 251 254 255 257 260 261 264 267 269 270 271 272 273 275 276 276 277 278 279 280 282 283 284 285 287 289 291 292 293 294 295 296 296 297 297 296
240 241 242 240 241 245 247 249 251 253 253 256 260 262 263 266 268 270 272 273 274 275 275 275 275 276 278 279 280 281 282 284 286 287 289 290 291 292 293 293 294 295 294 294
240 242 245 247 244 247 249 251 253 255 256 259 261 264 266 267 267 268 271 273 275 276 276 276 276 277 277 278 279 280 282 283 284 286 287 289 290 290 291 291 292 292 292 292
241 244 247 249 248 250 251 253 255 257 258 259 261 265 267 268 267 269 271 273 275 276 275 276 276 277 279 279 280 281 282 283 284 286 286 287 287 288 288 289 289 289 290 290
243 246 249 250 252 252 252 253 255 257 259 261 264 265 266 267 269 270 272 272 273 274 276 276 275 276 278 279 280 280 281 283 284 284 285 286 285 286 286 286 287 288 289 290
245 248 251 252 253 254 253 254 254 255 257 261 263 264 265 266 268 269 271 272 272 273 275 275 275 276 278 279 280 281 281 282 283 285 285 286 286 286 286 286 287 288 289 289
247 249 252 252 255 254 252 253 255 255 257 259 262 263 264 266 267 268 270 272 272 273 274 274 275 277 278 279 279 279 281 282 283 284 285 285 286 285 285 285 287 287 288 288
247 249 250 251 254 251 252 254 256 257 258 259 261 263 265 266 268 269 270 272 273 274 274 274 275 277 278 279 278 279 280 281 282 282 284 286 286 285 284 286 287 287 287 287
248 248 249 249 250 251 253 255 256 257 259 260 262 263 264 267 268 269 271 273 273 274 275 275 276 277 278 278 278 279 280 281 282 283 284 285 285 285 284 284 285 285 286 287
249 249 250 250 251 253 254 255 256 257 259 261 264 265 265 266 268 270 272 274 275 277 277 278 277 277 277 277 278 279 279 280 281 282 284 284 284 285 285 284 284 285 285 286
247 247 249 251 252 252 253 255 257 258 261 264 266 267 268 268 271 273 275 276 277 278 279 279 279 278 278 278 278 279 280 281 281 282 282 284 284 285 286 285 284 285 286 286
247 248 250 251 252 253 254 256 258 260 261 265 268 269 269 271 272 274 276 277 278 278 279 280 280 280 280 280 280 281 281 281 281 282 282 283 283 284 285 285 285 285 286 286
246 248 249 250 253 254 255 257 259 261 263 265 266 267 270 272 274 275 275 276 278 280 281 282 281 281 281 281 282 283 283 283 282 283 284 284 284 286 286 286 286 285 286 286
247 250 252 253 254 256 258 259 259 260 262 264 266 268 271 274 277 277 277 278 279 281 282 282 283 284 284 284 285 285 285 285 285 284 285 286 286 286 286 287 287 287 287 287
249 253 254 255 257 258 259 260 261 262 263 265 267 270 272 275 277 278 278 279 280 282 283 283 284 284 285 285 286 286 286 287 287 287 287 288 288 288 289 288 288 287 288 287
253 255 256 257 257 258 259 260 262 264 266 267 271 273 274 275 278 279 279 279 281 284 285 286 285 285 285 285 286 287 288 289 289 290 291 290 290 290 289 289 289 289 289 288
253 256 258 258 257 258 259 262 264 267 269 271 274 277 279 280 281 282 283 285 286 287 287 287 287 286 286 286 287 288 290 290 290 291 291 291 290 290 291 291 290 289 289 289
256 259 260 261 261 262 263 265 267 268 271 274 276 278 279 281 283 283 286 288 289 289 290 290 289 288 288 288 288 289 291 291 291 291 291 291 292 293 293 293 293 291 290 290
255 258 260 262 263 265 266 267 268 270 273 276 278 279 281 283 285 287 289 290 290 291 291 292 292 292 291 290 290 291 292 293 294 293 292 293 294 295 295 295 294 293 293 291
254 256 259 263 265 266 267 267 269 271 275 278 281 283 285 286 288 290 290 292 293 293 293 294 294 294 294 294 293 292 293 294 294 294 293 294 296 297 297 296 295 295 294 294
Height
5885 5889 5893 5895 5897 5899 5901 5903 5904 5906 5906 5905 5904 5904 5904 5903 5904 5904 5905 5905 5905 5904 5903 5903 5902 5901 5901 5900 5899 5897 5896 5894 5892 5890 5888 5886 5884 5882 5880 5878 5876 5873 5871 5869
5879 5882 5885 5888 5892 5894 5896 5898 5900 5900 5901 5900 5898 5898 5899 5899 5899 5900 5900 5901 5900 5899 5899 5898 5898 5897 5897 5896 5894 5893 5892 5890 5888 5886 5884 5882 5880 5878 5876 5874 5872 5869 5867 5865
5872 5876 5878 5881 5886 5888 5890 5892 5894 5895 5896 5895 5894 5893 5893 5894 5894 5895 5895 5895 5895 5895 5894 5894 5893 5893 5892 5891 5890 5888 5887 5885 5884 5882 5880 5878 5876 5873 5871 5869 5867 5865 5862 5860
5865 5868 5870 5877 5880 5882 5883 5885 5887 5887 5889 5889 5888 5888 5887 5888 5889 5889 5890 5890 5889 5889 5889 5888 5888 5887 5886 5885 5884 5883 5881 5880 5878 5876 5874 5872 5870 5868 5866 5864 5861 5859 5857 5855
5857 5860 5863 5868 5871 5874 5875 5876 5879 5880 5881 5882 5881 5882 5881 5880 5882 5883 5884 5883 5883 5882 5882 5882 5882 5881 5880 5879 5878 5877 5875 5874 5872 5870 5868 5866 5865 5863 5860 5858 5855 5853 5850 5848
5849 5852 5856 5861 5862 5864 5867 5867 5870 5872 5873 5873 5874 5875 5873 5873 5875 5876 5877 5876 5876 5876 5876 5876 5875 5874 5873 5872 5871 5870 5868 5867 5865 5863 5862 5860 5858 5856 5853 5851 5848 5846 5843 5841
5840 5843 5847 5852 5853 5855 5858 5859 5861 5863 5864 5865 5865 5866 5866 5866 5867 5868 5869 5869 5869 5869 5868 5868 5867 5867 5866 5864 5864 5862 5860 5859 5857 5856 5854 5853 5851 5849 5846 5844 5841 5839 5836 5833
5832 5835 5840 5842 5843 5846 5847 5850 5852 5854 5855 5855 5857 5858 5858 5859 5859 5859 5860 5860 5860 5860 5860 5860 5859 5858 5857 5856 5855 5854 5852 5851 5850 5848 5846 5844 5843 5841 5838 5836 5833 5831 5828 5825
5824 5827 5829 5830 5833 5835 5838 5841 5843 5845 5846 5846 5847 5848 5849 5850 5851 5851 5851 5852 5851 5851 5851 5851 5850 5849 5849 5848 5846 5845 5843 5841 5840 5839 5837 5835 5833 5831 5829 5827 5825 5822 5820 5817
5814 5817 5819 5821 5824 5825 5828 5832 5834 5835 5837 5838 5838 5839 5840 5841 5842 5842 5842 5843 5842 5842 5842 5841 5841 5840 5839 5839 5837 5836 5834 5832 5831 5830 5828 5826 5824 5822 5820 5818 5815 5813 5811 5808
5804 5807 5809 5811 5814 5817 5820 5823 5825 5827 5828 5828 5829 5830 5831 5832 5832 5833 5833 5833 5833 5832 5832 5832 5831 5830 5830 5829 5828 5827 5825 5823 5821 5820 5819 5817 5814 5812 5810 5808 5806 5803 5801 5799
5795 5798 5800 5803 5805 5807 5809 5812 5814 5817 5818 5819 5820 5821 5822 5822 5823 5823 5823 5823 5823 5823 5822 5822 5821 5821 5820 5819 5818 5817 5815 5814 5812 5810 5808 5806 5804 5802 5799 5798 5796 5793 5791 5789
5785 5788 5790 5792 5795 5797 5799 5801 5804 5806 5808 5809 5810 5810 5812 5812 5813 5813 5813 5813 5813 5812 5812 5811 5811 5810 5809 5808 5807 5806 5804 5802 5800 5799 5797 5795 5793 5791 5789 5787 5785 5783 5781 5778
5775 5778 5780 5783 5785 5786 5788 5791 5793 5795 5797 5798 5799 5800 5801 5802 5802 5803 5802 5802 5802 5801 5801 5800 5800 5799 5798 5797 5796 5794 5793 5791 5789 5787 5786 5784 5782 5780 5778 5776 5774 5772 5770 5768
5766 5768 5770 5773 5774 5776 5778 5780 5783 5785 5786 5788 5789 5790 5791 5791 5792 5792 5792 5791 5791 5790 5790 5789 5788 5788 5786 5785 5784 5782 5781 5779 5777 5775 5774 5772 5770 5768 5766 5764 5762 5760 5758 5756
5755 5757 5760 5762 5765 5767 5769 5771 5773 5775 5776 5778 5778 5779 5780 5780 5781 5781 5781 5780 5779 5779 5778 5777 5777 5776 5774 5773 5771 5770 5769 5767 5765 5764 5762 5760 5758 5756 5754 5752 5750 5747 5746 5744
5746 5748 5751 5754 5756 5758 5760 5761 5763 5765 5766 5767 5768 5768 5769 5769 5770 5770 5770 5769 5768 5767 5767 5766 5765 5763 5762 5761 5759 5757 5756 5755 5754 5752 5750 5748 5746 5744 5742 5739 5737 5735 5734 5732
5738 5741 5743 5745 5747 5749 5751 5752 5754 5755 5756 5757 5757 5758 5759 5759 5760 5759 5759 5758 5757 5756 5755 5754 5753 5751 5749 5748 5746 5745 5743 5742 5741 5739 5737 5735 5733 5731 5729 5726 5724 5723 5721 5719
5731 5733 5735 5737 5739 5741 5743 5744 5745 5746 5747 5748 5748 5749 5750 5750 5749 5749 5748 5747 5746 5745 5744 5742 5741 5739 5738 5736 5735 5733 5731 5730 5728 5727 5725 5723 5720 5718 5716 5714 5712 5710 5708 5707
5725 5727 5728 5730 5731 5733 5735 5736 5737 5737 5738 5739 5739 5740 5740 5740 5739 5739 5738 5737 5735 5734 5733 5731 5729 5728 5727 5725 5723 5722 5720 5718 5716 5714 5711 5710 5708 5706 5704 5702 5699 5697 5696 5694
5718 5720 5722 5723 5724 5726 5727 5727 5728 5729 5730 5731 5731 5731 5731 5731 5730 5729 5728 5727 5726 5724 5722 5720 5719 5717 5716 5714 5713 5710 5708 5706 5704 5702 5700 5698 5696 5694 5692 5689 5687 5685 5683 5681
5712 5713 5714 5716 5717 5718 5719 5719 5720 5721 5722 5721 5722 5723 5722 5722 5721 5720 5718 5717 5716 5714 5712 5710 5709 5708 5706 5704 5702 5700 5697 5695 5693 5691 5689 5686 5684 5682 5680 5677 5675 5673 5670 5668
5705 5706 5707 5709 5710 5711 5712 5713 5713 5713 5714 5714 5715 5714 5714 5713 5712 5710 5709 5708 5706 5704 5702 5701 5699 5698 5696 5693 5692 5690 5687 5685 5683 5680 5678 5675 5673 5670 5668 5666 5663 5661 5658 5656
5700 5701 5702 5703 5704 5705 5706 5706 5706 5707 5707 5707 5707 5706 5705 5704 5703 5702 5700 5698 5696 5695 5693 5692 5690 5688 5686 5684 5682 5680 5677 5675 5673 5671 5668 5665 5662 5660 5657 5655 5653 5650 5647 5645
5694 5695 5696 5697 5697 5698 5699 5700 5700 5700 5701 5700 5699 5698 5697 5696 5695 5694 5692 5690 5688 5686 5684 5683 5681 5678 5676 5674 5672 5670 5668 5666 5663 5660 5657 5654 5652 5650 5647 5645 5642 5640 5637 5635
5689 5690 5691 5691 5692 5692 5693 5693 5694 5694 5694 5693 5692 5691 5690 5689 5687 5686 5684 5682 5680 5678 5676 5674 5672 5669 5667 5665 5663 5661 5658 5656 5654 5651 5648 5646 5643 5640 5638 5635 5632 5630 5628 5626
5683 5684 5685 5686 5686 5687 5687 5687 5687 5687 5687 5686 5685 5684 5683 5682 5680 5678 5676 5675 5672 5670 5668 5666 5664 5661 5659 5656 5654 5652 5650 5647 5645 5642 5640 5637 5634 5632 5629 5627 5624 5622 5620 5618